Tracking 28125 objects as of 4-Oct-2023
HD Live streaming from Space Station
objects crossing your sky now

ZHUHAI-1 03C

Track ZHUHAI-1 03C now!
10-day predictions


NORAD ID: 44537
Int'l Code: 2019-060D
Perigee: 452.3 km
Apogee: 465.1 km
Inclination: 97.5 °
Period: 93.6 minutes
Semi major axis: 6829 km
RCS: Unknown
Launch date: September 19, 2019
Source: People's Republic of China (PRC)
Launch site: Jiuquan Satellite Launch Center, China (JSC)
Your satellite tracking list
Your tracking list is empty




NASA's NSSDC Master Catalog

Two Line Element Set (TLE):
1 44537U 19060D   23277.42434155  .00046386  00000-0  12290-2 0  9991
2 44537  97.4811  33.0274 0009401 247.4089 112.6162 15.38162038224545
Source of the keplerian elements: AFSPC